Regional Weather Roundup
Issued by NWS Charleston, SC

Current Version | Previous Version | Graphics & Text | Print | Product List | Glossary On
Versions: 1 2 3 4 5 6 7 8 9 10 11 12 13 14 15 16 17 18 19 20 21 22 23 24 25 26 27 28 29 30 31 32 33 34 35 36 37 38 39 40 41 42 43 44 45 46 47 48 49 50
000
ASUS42 KCHS 300526
RWRCHS

REGIONAL WEATHER ROUNDUP
NATIONAL WEATHER SERVICE CHARLESTON SC
1200 AM EST FRI JAN 30 2015

NOTE: "FAIR" INDICATES FEW OR NO CLOUDS BELOW 12,000 FEET WITH NO
SIGNIFICANT WEATHER AND/OR OBSTRUCTIONS TO VISIBILITY.

NOT ALL STATIONS ARE QUALITY CONTROLLED BY THE NATIONAL
WEATHER SERVICE. USE DATA WITH CAUTION...ESPECIALLY
DEWPOINT OBSERVATIONS.

SCZ027-030-031-034>040-042>050-300600-
...SOUTHEAST SOUTH CAROLINA...

CITY           SKY/WX    TMP DP  RH WIND       PRES   REMARKS
N CHARLESTON   CLOUDY    47  42  83 SW3       30.15F
WATERFRONT PRK   N/A     52 N/A N/A SW3         N/A
MOUNT PLEASANT MOCLDY    52  46  82 CALM      30.15F
PINOPOLIS        N/A     52  45  76 SW5       30.08F
MONCKS CORNER  CLOUDY    50  45  81 SW3       30.14F
SUMMERVILLE    MOCLDY    48  45  87 CALM      30.14F
BEAUFORT MCAS  CLOUDY    51  46  83 SW8       30.16F
BEAUFORT ARPT  CLOUDY    52  48  87 SW6       30.15F
HILTON HEAD IS CLOUDY    54  48  82 S6        30.17F
WALTERBORO     CLOUDY    50  45  81 SW6       30.14F
ALLENDALE      CLOUDY    50  41  71 CALM      30.12F

...SOUTHERN MIDLANDS AND PEE DEE...

CITY           SKY/WX    TMP DP  RH WIND       PRES   REMARKS
GEORGETOWN     NOT AVBL
KINGSTREE      NOT AVBL
ORANGEBURG     CLOUDY    49  39  68 S8        30.12F
BARNWELL       CLOUDY    52  37  58 CALM      30.12F
AIKEN          FAIR      50  32  50 SW7       30.11F
MANNING        CLOUDY    50  41  71 S6        30.12F
COLUMBIA       CLOUDY    53  30  41 SW7       30.09F
SUMTER         CLOUDY    46  38  74 S5        30.08F
FLORENCE       CLOUDY    50  40  68 SW10G18   30.10F
MYRTLE BEACH   CLOUDY    52  43  71 SW9       30.14F
N MYRTLE BEACH CLOUDY    52  43  71 SW12      30.12F

$$

GAZ063-065-086>088-099>101-113>116-118-119-134>141-150-300600-
...SOUTHEAST GEORGIA...

CITY           SKY/WX    TMP DP  RH WIND       PRES   REMARKS
SAVANNAH ARPT  CLOUDY    50  44  80 S5        30.18S
HUNTER AAF     CLOUDY    51  47  87 SW3       30.16S
FORT STEWART   CLOUDY    49  45  85 S1        30.16S
STATESBORO     CLOUDY    51  40  65 SW5       30.13F
SYLVANIA       CLOUDY    48  42  79 CALM      30.14F
CLAXTON        FAIR      45  43  93 CALM      30.15F

...CSRA...CENTRAL AND FAR SOUTHEAST GEORGIA...

CITY           SKY/WX    TMP DP  RH WIND       PRES   REMARKS
THOMSON        CLOUDY    51  36  57 CALM      30.13F
AUGUSTA-BUSH   CLOUDY    46  35  65 S3        30.11F
AUGUSTA-DANIEL CLOUDY    51  30  44 S7        30.11F
SWAINSBORO     CLOUDY    57  19  23 SW9       30.13F
VIDALIA        CLOUDY    54  34  47 SW10      30.14F
EASTMAN        FAIR      54  35  49 SW5       30.16F
HAZLEHURST     FAIR      54  35  47 SW5       30.14F
ALMA           PTCLDY    49  36  61 S6        30.18F
WAYCROSS       PTCLDY    52  39  63 SW7       30.18F
JESUP          FAIR      52  43  71 CALM      30.18S
BAXLEY         MOCLDY    54  34  47 SW5       30.17F
BRUNSWICK      CLOUDY    52  45  76 W6        30.19S
SAINT SIMONS   CLOUDY    52  48  86 SW8       30.19R

$$

SCZ027-028-034-036>038-045-046-048>050-GAZ119-141-300600-
...LAKE AND SUPPLEMENTAL COASTAL OBSERVATIONS...

STATION/POSITION TIME  TEMP    WIND        PRES    WAVE   SWELL
                       AIR SEA DIR/SP/G            HT/PER HT/PER/DIR
                 (UTC) (F)     (DEG/KT/KT) (MB)    (FT/S) (FT/S/D)
UPR LAKE MARION  NOT AVBL
WINYAH BAY       NOT AVBL
LAKE MURRAY      0500   52     230/ 10/ 14 1017.9F
ACE BASIN NERRS  NOT AVBL
FORT PULASKI     0500   52 52  230/  4/  6 1022.1F
SAPELO ISLAND    0400   51     210/  6     1022.0S

$$

ANZ835-935-AMZ111-154-330-350-352-354-370-450-454-472-300600-
...C-MAN AND BUOY OBSERVATIONS...

STATION/POSITION TIME  TEMP    WIND        PRES    WAVE   SWELL
                       AIR SEA DIR/SP/G            HT/PER HT/PER/DIR
                 (UTC) (F)     (DEG/KT/KT) (MB)    (FT/S) (FT/S/D)
BUOY 41004       0450   63 68  230/ 21/ 27 1020.2F   4/ 4   2/10
BUOY 41008       0450   55 54  220/ 10/ 12 1021.8S   3/ 9   2/ 80/ 9
FOLLY BEACH CMAN 0500   53     230/  7/  8 1021.3F
CAPERS NEARSHORE 0400   54     230/  8/ 10   N/A
FRIPP NEARSHORE  0400   53     230/ 10/ 12 1021.1R


STATION/POSITION TIME  TEMP    WIND        PRES    WAVE   SWELL
                       AIR SEA DIR/SP/G            HT/PER HT/PER/DIR
                 (UTC) (F)     (DEG/KT/KT) (MB)    (FT/S) (FT/S/D)
5E ST. MARYS GA  0421      56                N/A     3/11   2/ 90/11
FRYING PAN BUOY  0450   63 67  230/ 21/ 27 1020.2F   5/ 5   2/ 90/10
BUOY 41025       0450   60 71  230/ 25/ 29 1018.1F   5/ 4   3/ 60/ 8
CAPE LOOKOUT NC  0500   56     240/ 14/ 21 1018.7F
BUOY 41002       0450   60 72  240/ 12/ 16 1022.8F   5/ 9   5/ 20/ 9
BUOY 41010       0420   65 75  210/  4/  6 1024.0F
ST AUGUSTINE FL  0500   53     220/  7/  8 1023.3F


$$



USA.gov is the U.S. government's official web portal to all federal, state and local government web resources and services.